Location: Eurasberg
(48.3353°N, 11.0839°E)
Time: 13:42:14
(UTC+00:00)

Timation 1 Rocket - Pass Details

Date: 25 April 2026
Orbit: 895 x 908 km, 70.0° (Epoch: 14 May)

Event Time Altitude Azimuth Distance (km) Brightness Sun altitude
Exits shadow 23:50:46 35° 271° (W) 1,422 5.2 -27.7°
Maximum altitude 23:52:25 43° 309° (NW) 1,262 5.2 -27.6°
Drops below altitude 10° 23:58:08 10° 21° (NNE) 2,603 7.7 -27.4°
Sets 00:00:47 0° 28° (NNE) 3,548 8.6 -27.3°
